Location: Newark
(51.4759°N, 7.0373°E)
Time: 21:59:09
(UTC+00:00)

N. Korean satellite - Pass Details

Date: 03 April 2020
Orbit: 455 x 504 km, 97.2° (Epoch: 06 June)

Event Time Altitude Azimuth Distance (km) Brightness Sun altitude
Rises 04:19:06 0° 28° (NNE) 2,505 11.0 -7.3°
Reaches altitude 10° 04:21:52 10° 53° (NE) 1,616 10.6 -6.9°
Maximum altitude 04:23:57 15° 90° (E) 1,325 10.1 -6.6°
Drops below altitude 10° 04:26:01 10° 127° (SE) 1,599 9.7 -6.3°
Sets 04:28:43 0° 152° (SSE) 2,464 10.3 -5.9°
